Weather at custom point

    39°02′52″N   77°28′22″W   America/New_York
temp.,
°C
wind,
m/s
gust,
m/s
humid.,
%
clouds,
%
prec.,
mm/h
press.,
hPa
HPBL,
m
17 september, fri
fri1723:00+21ne2496100 0.0 1021145
02:00+20nne2499100 0.0 1021172
05:00+19n259997 0.0 1021145
08:00+20nne359760 0.0 1022214
11:00+22nne348699 0.0 1023530
14:00+26nne226842 0.3 1021992
17:00+25nne33828 2.4 1019520
20:00+21n239516 4.0 102061
18 september, sat
sat1823:00+20nne229736 0.0 102046
02:00+19n11972 0.0 101924
05:00+19nw11974 0.0 101923
08:00+20nw11940 0.0 102070
11:00+25nw237225 0.0 1020745
14:00+29nnw22555 0.0 10181297
17:00+29n345325 0.0 10161383
20:00+24ene117794 0.1 101811
19 september, sun
sun1923:00+22wsw22835 0.0 101915
02:00+21nw22836 0.0 101938
05:00+19nnw26870 0.0 1020133
08:00+19n25860 0.0 1022165
11:00+25nne34591 0.0 1023738
14:00+28nne32515 0.0 10211285
17:00+27nne32527 0.0 1020910
20:00+21ene35721 0.0 102199
20 september, mon
mon2023:00+20e1165100 0.0 102322
02:00+18e1172100 0.0 102416
05:00+17se129187 0.0 102448
08:00+19se138888 0.0 1024155
11:00+24se3458100 0.0 1025867
14:00+25sse3452100 0.0 10241160
17:00+26se4549100 0.0 10231389
20:00+22se4963100 0.0 1024402
21 september, tue
tue2123:00+20se41076100 0.0 1025461
02:00+18sse258997 0.0 1025193
05:00+17sse239494 0.0 102497
08:00+18se2690100 0.0 1025245
11:00+23sse467094 0.0 10241035
14:00+25sse4560100 0.1 10231477
17:00+25sse3562100 0.0 1021827
20:00+20se2387100 0.7 102193